Showing default

DSAT, 42794

Orbit data source: Space-Track

DSAT, 42794 is a payload satellite owned by D-ORBIT (IT) in SSO that was launched on Fri, 23 Jun 2017 UTC via a PSLV-XL launch vehicle from the Sirharikota (SRI). Payload-class satellites include a variety of spacecraft equipped with specific instruments for various scientific and technological missions. These include communications satellites like Starlink; space stations such as the ISS; scientific satellites like the Hubble; Earth observation satellites from companies like Planet Labs, Umbra, and HawkEye 360; GPS; miniature CubeSats for education and research; and military/defense satellites.

Loading next visibility...
Identifier
42794, 2017-036AF
Orbit
SSO
Country
Flag of ITIT
Related business
Manufacturer
D-ORBIT
Mission
Non-operational Commercial Technology
Bus & Motor
CUBESAT 3U, Unknown motor
Mass
4.5 kg wet, 4.2 kg dry
Launch date (UTC)
2017-06-23 (9 years ago)
Launch vehicle
PSLV-XL
Launch site
Sirharikota (SRI)
Object type
Payload
Rocket body
Debris
Shape & HBR
Box, 0.1 m
Radar Cross Section
0.035 m², Small (<0.1 m²)

Expand to show TLE details & history
Last TLE update: 7 hours ago

TLE from 7 hours ago
0 DSAT
1 42794U 17036AF  26062.18188499  .00007797  00000-0  38052-3 0  9998
2 42794  97.5470  41.5602 0084694 167.5584 192.7767 15.15394512474791
Epoch: 2026-03-03T04:21Z
TLE epoch observation values (Epoch: 2026-03-03T04:21:54.863Z)
Latitude
0.00001°
Longitude
175.11698°
Altitude
579.873 km
Speed
7.539 km/s
True Right ascension
02h 46m 14s
True Declination
0° 00' 00"
Sunlit
Object was in daylight at epoch
Visualization orbit readout
Latitude
Unknown
Longitude
Unknown
Altitude
Unknown
Speed
Unknown
Apparent Right ascension
Unknown
Apparent Declination
Unknown
Sunlit
N/A
Visualization observer readout
Local Sidereal Time
15:17:21
Azimuth
Unknown
Elevation
Unknown
Doppler factor
Unknown
Orbital elements
Apogee altitude
575.154 km
Perigee altitude
458.363 km
Semi-major axis
6,894.896 km
Eccentricity
0.00847
Inclination
97.547°
RAAN
41.5602°
Arg. of periapsis
167.5584°
True anomaly
192.56426°
Mean anomaly
192.7767°
Eccentric anomaly
192.67026°
Mean motion
3.79098 °/min
Orbital period
94.96 mins
BSTAR
0.00038052
Loading maneuver chart data...
Computing Atmospheric mass density...

Documentation

Showing up to 5 results
|